Temperature
19 19 19 19 19 18 18 18 18 18 18 18 18 18 19 18 19 19 18 18 18 18 18 18 18 18 18 18 18 18 18 17 17 17 17 17 17 17 16 16 16 16 16
19 19 19 18 18 18 18 18 18 18 18 18 18 18 18 19 19 19 19 19 18 18 18 18 18 18 18 18 18 18 18 18 17 17 17 17 17 17 17 16 16 16 16
19 19 19 19 18 18 18 18 18 18 18 18 18 18 18 19 19 19 19 19 18 18 18 18 18 18 18 18 18 18 18 18 18 18 17 17 17 17 17 17 17 16 16
19 19 19 18 18 18 18 18 18 18 18 18 18 18 18 18 19 19 19 19 18 18 18 18 18 18 18 18 18 18 18 18 18 18 17 17 17 17 17 17 17 17 16
19 19 19 18 18 18 18 18 18 18 18 18 18 18 18 18 19 19 19 19 18 18 18 18 18 18 18 18 18 18 18 18 18 18 18 17 17 17 17 17 17 17 17
19 19 18 18 18 18 18 18 18 18 18 18 18 18 18 18 19 19 19 19 18 18 18 18 18 18 18 18 18 18 18 18 18 18 18 18 17 17 17 17 17 17 17
19 19 18 18 18 18 18 18 18 18 18 18 18 18 18 18 19 19 19 19 18 18 18 18 18 18 18 18 18 18 18 18 18 18 18 17 17 17 17 17 17 17 17
19 19 19 18 18 18 18 18 18 18 18 18 18 18 18 18 18 19 18 18 18 18 18 18 18 18 18 18 18 18 18 18 18 18 17 17 17 17 17 17 17 17 17
19 19 19 18 18 18 18 18 18 18 18 18 18 17 17 17 18 18 18 18 18 18 18 18 18 18 18 18 18 18 18 18 18 18 17 17 17 17 17 17 17 17 16
19 19 19 18 18 18 18 18 18 18 18 18 18 18 18 18 17 17 18 18 18 18 18 18 18 18 18 18 18 18 18 18 18 17 17 17 17 17 17 17 17 17 17
18 18 19 18 18 18 18 18 18 18 18 18 18 18 18 18 18 17 18 18 18 18 18 18 18 18 18 18 18 18 18 18 18 18 17 17 17 17 17 17 17 17 17
18 18 18 18 18 18 18 18 18 18 18 18 18 18 17 17 18 17 17 18 18 18 18 18 18 18 18 18 18 18 18 18 18 18 17 17 17 17 17 17 17 17 17
18 18 18 18 18 18 18 18 18 18 18 18 18 18 18 17 17 17 17 17 17 18 18 18 18 18 18 18 18 18 18 18 17 17 17 17 17 17 17 17 17 17 17
18 18 18 18 18 18 18 18 18 18 18 18 18 18 18 18 17 17 17 17 17 17 17 18 18 18 18 18 18 18 18 17 17 17 17 17 17 17 17 17 17 17 16
18 18 18 18 18 18 18 18 18 18 18 18 17 17 17 17 17 17 17 17 17 17 17 17 17 18 18 18 17 17 17 17 17 17 17 17 17 17 17 16 16 16 16
18 18 18 18 18 18 18 18 18 17 17 17 17 17 17 17 17 17 17 17 17 17 17 17 17 17 17 17 17 17 17 17 17 17 17 17 17 16 16 16 16 16 16
18 18 18 18 18 18 17 17 17 17 17 17 17 17 17 17 17 17 17 17 17 17 17 17 17 17 17 17 17 17 17 17 17 16 16 16 16 16 16 16 16 16 15
18 18 18 17 17 17 17 17 17 17 17 17 17 17 17 17 16 16 16 16 16 16 16 16 17 17 16 16 16 16 16 16 16 16 16 16 16 16 15 15 15 15 15
18 17 17 17 17 17 17 17 17 17 17 17 17 17 16 16 16 16 16 16 16 16 16 16 16 16 16 16 16 16 16 16 16 16 16 16 16 15 15 15 15 15 15
17 17 17 17 17 17 17 17 17 16 16 16 16 16 16 16 16 16 16 16 16 16 16 16 16 16 16 16 15 15 15 15 15 15 15 15 15 15 15 15 15 15 15
17 17 17 17 16 16 16 16 16 16 16 16 16 16 16 16 16 15 15 15 15 15 15 15 15 15 15 15 15 15 15 15 15 15 15 15 15 15 15 15 15 14 14
16 16 16 16 16 16 16 16 16 15 15 15 15 15 15 15 15 15 15 15 15 15 15 15 15 15 15 15 14 14 14 14 14 15 14 15 14 14 14 14 14 14 14
16 16 16 16 16 16 15 15 15 15 15 15 15 15 15 15 15 15 15 15 15 15 15 14 14 14 14 14 14 14 14 14 14 14 14 14 14 14 14 14 14 14 14
16 16 16 15 15 15 15 15 15 15 15 15 15 15 15 15 14 14 15 15 15 15 15 14 14 14 14 14 14 14 14 14 14 14 14 13 14 14 14 14 14 13 13
16 15 15 15 15 15 15 15 15 15 15 15 15 14 14 14 14 14 14 14 14 14 14 14 14 14 13 13 13 13 13 13 13 14 13 13 13 13 13 13 13 13 13
15 15 15 15 15 15 15 15 15 14 14 14 14 14 14 14 14 14 14 14 14 14 14 13 13 13 13 13 13 13 13 13 13 13 13 13 13 13 13 13 13 13 13
Wind_Speed
4 5 5 5 5 5 5 4 3 3 3 3 4 4 4 5 6 7 9 13 15 16 15 14 13 13 13 13 12 12 12 12 12 12 12 12 12 12 12 12 11 11 11
5 4 4 3 4 5 5 4 3 2 2 2 3 3 4 5 6 7 8 11 14 15 15 14 14 13 13 12 12 12 12 12 12 13 13 12 12 12 12 12 11 11 11
6 5 4 3 4 5 4 3 3 1 1 2 2 2 3 3 4 5 7 9 11 13 14 14 14 13 13 13 13 12 12 12 12 13 12 12 12 12 12 12 12 12 12
7 5 3 3 4 3 3 2 2 1 1 1 2 2 2 2 2 4 5 8 9 10 11 13 14 14 14 13 13 13 12 12 11 12 12 12 12 12 13 13 13 12 12
7 5 4 3 4 3 2 3 2 2 2 2 2 2 2 2 3 4 4 6 8 9 10 12 14 15 15 14 14 13 13 12 12 12 12 12 12 12 13 13 13 13 13
7 6 4 4 4 3 3 3 3 2 2 2 2 2 3 3 3 4 5 4 6 9 10 10 11 12 15 15 14 14 14 13 13 13 13 12 13 13 13 13 13 14 14
7 5 4 3 3 4 4 4 2 2 2 1 0 2 3 3 4 4 4 4 5 7 8 10 10 10 10 14 15 15 14 14 14 14 14 14 14 13 14 14 14 14 14
7 6 5 4 4 4 4 4 3 2 2 2 2 0 2 3 3 4 3 4 5 5 6 9 10 11 11 10 12 15 16 15 14 14 14 15 14 14 14 14 14 14 14
6 6 5 5 5 5 4 5 4 4 4 3 3 3 2 3 3 3 4 4 4 4 5 5 8 10 11 11 11 14 16 16 15 15 15 14 14 14 14 14 14 14 14
6 6 6 5 5 4 4 5 5 4 4 3 2 3 3 3 2 2 3 3 4 4 5 5 5 7 11 11 12 14 16 17 17 16 15 15 14 15 14 14 14 14 14
4 5 5 5 5 4 5 5 4 4 4 4 3 2 2 2 3 3 3 3 3 4 5 5 5 6 9 10 11 13 15 16 16 16 15 15 14 14 14 14 14 13 13
2 2 3 4 4 4 5 5 5 5 5 4 4 3 3 3 3 3 4 3 4 4 4 4 5 5 7 8 11 12 14 15 15 15 15 14 14 14 14 13 13 13 13
2 2 2 3 3 4 5 5 4 5 5 5 5 4 4 5 4 4 3 3 3 3 2 3 4 5 6 6 8 10 11 13 13 14 14 14 14 14 14 13 13 13 13
3 3 2 3 3 3 3 4 4 4 4 5 6 5 4 4 4 4 4 3 2 3 3 4 3 4 5 6 8 9 8 10 11 13 14 14 14 14 13 13 13 13 13
2 2 3 3 2 3 3 3 3 4 4 4 4 4 3 3 3 3 4 4 4 4 5 4 3 3 4 5 7 6 7 9 10 11 12 13 13 14 13 13 12 12 12
2 2 2 3 3 3 3 2 2 3 3 3 3 3 3 3 2 2 3 3 4 4 5 4 4 3 3 4 6 6 7 9 9 10 11 11 12 12 13 12 12 11 11
3 3 3 3 3 3 3 3 3 3 3 3 3 3 4 3 3 3 2 2 3 4 5 5 3 3 3 4 3 4 6 6 6 9 9 10 11 11 12 12 11 11 10
3 4 3 3 3 3 3 4 4 4 4 4 4 3 4 3 3 3 3 3 3 3 4 5 4 2 3 4 3 4 4 5 6 8 8 8 9 10 10 10 10 10 10
3 3 3 4 4 4 4 4 4 4 4 5 4 4 5 4 4 4 4 3 3 3 2 3 4 2 2 2 2 3 3 3 4 5 6 8 7 8 8 8 8 9 9
3 3 4 4 4 3 4 4 4 4 4 4 4 5 5 5 6 5 4 4 3 2 2 2 3 3 2 2 1 2 3 3 4 3 3 4 5 6 7 8 8 9 9
4 3 3 3 4 4 4 4 4 4 4 4 5 5 5 6 7 5 4 4 3 3 2 3 2 2 2 2 2 2 3 3 4 3 2 3 3 3 5 7 8 9 9
3 3 3 3 4 5 5 4 4 4 4 5 5 5 4 5 6 6 5 6 5 5 4 4 3 3 4 3 3 3 2 2 3 3 2 4 2 4 4 5 8 9 10
2 2 3 3 4 5 5 4 4 4 4 5 4 4 4 4 4 3 5 5 6 7 7 6 5 5 4 5 4 4 3 3 4 3 2 4 3 4 5 5 7 8 9
2 2 3 3 3 4 4 4 4 3 4 4 4 5 5 4 4 4 3 4 4 4 5 5 6 6 6 5 5 5 5 4 3 3 2 3 3 4 4 4 7 8 8
2 2 2 2 2 3 4 3 3 2 3 4 4 4 4 4 5 4 3 3 4 4 4 4 5 6 6 5 4 2 1 1 3 3 2 2 2 2 2 3 5 7 8
3 2 2 2 2 3 3 3 2 1 2 3 3 3 4 4 5 4 4 4 4 4 3 2 2 3 3 4 4 4 4 3 2 3 3 2 2 1 2 2 2 3 4
Wind_Direction
177 179 191 194 198 204 204 202 201 203 209 227 228 213 207 200 202 196 196 197 198 199 198 197 200 202 204 205 206 209 212 214 213 215 219 223 225 227 226 224 223 223 224
178 176 179 184 196 204 206 203 196 192 201 213 221 220 216 204 200 200 198 201 200 202 203 202 204 205 206 208 211 214 217 219 218 220 223 225 225 226 226 225 225 225 225
178 172 174 184 199 203 202 194 196 186 196 212 217 230 227 208 199 201 199 199 200 204 205 205 208 211 212 213 216 218 219 220 220 221 222 224 225 226 226 226 228 227 227
184 175 171 187 204 198 185 177 187 179 219 225 226 240 235 207 204 214 208 206 201 203 207 209 211 214 215 216 218 219 218 217 218 221 222 223 225 226 228 229 231 229 230
189 186 183 196 201 191 187 194 179 180 199 227 240 239 242 224 223 230 218 210 206 205 208 213 216 218 218 220 221 221 219 217 219 223 225 226 229 229 230 232 231 229 231
192 189 189 198 193 182 196 196 185 187 197 212 242 265 258 247 230 229 232 219 211 213 213 215 219 222 223 224 225 225 225 224 224 227 228 229 229 230 233 233 231 232 233
196 193 191 192 192 191 200 196 187 194 214 189 107 307 295 266 250 242 237 224 222 222 219 217 216 219 226 228 228 228 232 233 231 231 231 231 230 232 234 233 232 232 233
197 198 191 196 193 192 201 201 187 198 228 195 166 159 320 316 294 262 246 229 230 220 220 223 216 216 220 219 223 227 230 233 234 234 235 232 232 235 236 235 234 235 236
202 203 197 191 194 193 200 206 198 197 218 235 195 179 190 241 284 283 256 243 232 225 230 224 219 221 224 222 224 229 233 233 234 236 236 234 233 234 236 238 237 239 240
207 209 202 195 195 191 193 205 201 196 193 229 242 222 206 191 200 272 289 262 247 235 233 237 229 226 229 225 223 227 232 232 232 235 237 235 234 236 239 240 241 242 242
216 212 197 191 193 196 198 202 201 196 194 208 222 231 234 228 205 208 263 283 279 251 234 230 226 224 228 227 228 231 231 232 232 234 235 236 237 239 240 242 243 242 242
225 214 198 198 201 202 201 202 204 206 212 216 222 218 211 214 215 207 232 259 269 270 250 235 229 229 232 227 232 235 232 229 231 233 234 236 238 240 241 242 242 241 241
215 230 215 201 204 207 203 200 206 214 217 221 224 230 229 226 208 200 213 244 258 267 257 245 238 226 229 224 233 240 236 231 233 235 237 235 236 237 239 241 243 243 243
220 224 215 213 216 210 205 203 213 227 224 227 237 237 242 244 218 206 203 208 258 275 267 255 258 231 224 225 233 235 234 233 237 241 240 237 237 238 238 239 242 243 243
228 227 220 225 227 218 211 201 217 234 230 230 238 241 242 254 236 218 210 201 201 250 267 255 249 242 222 222 231 231 230 237 239 240 240 239 239 240 241 242 242 241 241
245 250 244 228 226 219 215 205 224 236 229 240 237 240 249 253 255 246 230 219 206 215 248 252 240 246 232 239 243 237 242 248 247 244 239 242 245 243 242 243 244 240 239
235 241 241 230 227 229 224 218 228 228 231 248 250 239 250 252 253 252 241 229 225 213 242 269 259 248 231 241 246 243 254 251 251 246 241 243 246 248 245 241 240 240 239
231 232 236 234 237 238 230 220 229 235 231 242 247 243 251 256 260 255 247 245 242 224 223 261 278 265 248 238 236 246 256 260 252 253 246 241 241 242 241 236 237 237 238
238 237 229 230 238 241 233 226 225 231 235 237 238 240 248 242 251 256 247 250 251 248 223 236 264 264 262 249 257 270 270 270 261 261 243 240 237 236 232 234 231 232 236
233 239 232 230 236 247 240 229 224 230 242 248 244 241 242 234 240 246 247 243 243 246 238 240 259 266 269 267 237 269 288 280 275 268 253 237 238 237 240 239 238 237 235
235 240 245 252 247 247 243 229 224 231 237 254 257 252 248 247 246 244 246 236 230 234 231 233 251 272 276 279 259 254 268 284 280 257 253 255 243 246 245 245 242 243 240
230 229 237 245 256 263 263 245 231 232 233 239 251 263 262 256 254 251 248 239 220 219 221 220 241 242 252 253 257 256 258 276 277 260 220 262 234 248 245 242 245 245 243
228 235 240 243 252 261 263 256 249 243 243 239 237 249 268 269 264 248 252 255 247 237 226 216 221 236 237 229 233 249 243 240 247 253 208 261 256 252 251 256 246 242 242
223 237 248 252 255 261 256 263 267 257 253 248 239 234 238 253 253 239 230 239 249 253 241 229 222 233 234 224 218 227 236 247 264 266 191 232 253 252 260 256 249 242 246
230 241 254 246 248 270 263 265 276 260 257 263 261 253 241 239 250 227 211 226 256 274 267 244 240 244 242 229 205 197 238 245 273 274 227 210 248 260 266 265 271 257 253
230 245 265 258 247 268 273 265 261 226 248 273 282 273 257 244 241 213 209 213 237 257 267 288 284 282 261 245 225 205 208 218 237 260 242 199 231 227 301 287 281 290 273
Height
1542 1543 1544 1545 1546 1547 1547 1548 1549 1550 1550 1551 1553 1554 1555 1556 1557 1558 1559 1559 1560 1560 1561 1561 1561 1561 1561 1561 1561 1562 1562 1562 1563 1563 1563 1564 1564 1564 1564 1564 1565 1566 1566
1542 1542 1544 1545 1545 1546 1547 1547 1548 1549 1550 1551 1552 1553 1554 1555 1556 1557 1557 1558 1558 1559 1559 1559 1560 1560 1560 1560 1560 1561 1561 1561 1561 1561 1561 1562 1562 1562 1562 1562 1563 1563 1564
1542 1542 1543 1544 1545 1546 1546 1547 1548 1548 1549 1550 1551 1552 1553 1554 1555 1556 1556 1557 1557 1557 1558 1558 1558 1558 1558 1559 1559 1559 1559 1559 1559 1559 1559 1560 1560 1560 1560 1560 1560 1561 1561
1541 1542 1542 1543 1544 1545 1546 1546 1547 1548 1549 1549 1550 1551 1552 1553 1554 1554 1555 1555 1555 1555 1556 1556 1556 1557 1557 1557 1557 1557 1557 1557 1557 1557 1557 1557 1557 1557 1557 1558 1558 1558 1559
1540 1541 1542 1543 1544 1545 1545 1546 1547 1547 1548 1548 1549 1549 1550 1551 1551 1551 1552 1553 1553 1553 1553 1554 1555 1555 1555 1555 1555 1555 1555 1555 1555 1555 1555 1555 1555 1555 1555 1555 1555 1556 1556
1540 1540 1541 1542 1543 1543 1544 1545 1546 1546 1547 1547 1548 1548 1548 1549 1549 1550 1550 1550 1551 1551 1551 1552 1552 1553 1553 1553 1553 1553 1553 1553 1552 1552 1552 1552 1552 1552 1552 1552 1553 1553 1553
1538 1539 1540 1540 1541 1541 1542 1543 1544 1545 1546 1547 1547 1546 1547 1547 1547 1548 1548 1548 1548 1549 1549 1549 1550 1550 1550 1551 1551 1551 1551 1550 1550 1549 1549 1549 1549 1549 1550 1550 1550 1550 1550
1537 1538 1538 1539 1539 1540 1540 1542 1543 1544 1545 1545 1545 1545 1545 1546 1545 1545 1545 1546 1546 1546 1546 1547 1547 1547 1548 1548 1548 1548 1548 1548 1547 1547 1547 1547 1547 1547 1546 1546 1547 1547 1547
1535 1536 1536 1537 1537 1538 1539 1540 1541 1542 1542 1544 1544 1544 1544 1543 1543 1543 1543 1543 1543 1543 1543 1544 1544 1544 1545 1545 1545 1545 1545 1545 1544 1544 1544 1544 1543 1543 1543 1543 1543 1544 1544
1533 1534 1535 1535 1536 1536 1536 1537 1539 1540 1540 1541 1541 1542 1542 1541 1541 1540 1540 1540 1540 1540 1541 1541 1541 1541 1541 1541 1541 1541 1541 1541 1541 1540 1541 1540 1540 1540 1540 1540 1540 1540 1540
1531 1532 1532 1533 1533 1534 1534 1535 1536 1537 1538 1538 1538 1538 1538 1538 1538 1538 1536 1536 1537 1537 1537 1537 1538 1538 1538 1538 1538 1538 1538 1538 1538 1538 1537 1537 1537 1536 1536 1536 1536 1536 1536
1529 1529 1530 1530 1531 1532 1532 1533 1534 1535 1535 1535 1535 1535 1535 1535 1534 1534 1533 1533 1533 1533 1534 1534 1534 1534 1534 1534 1534 1534 1534 1534 1534 1534 1534 1533 1533 1533 1533 1533 1533 1532 1532
1527 1527 1528 1528 1528 1529 1530 1531 1531 1532 1532 1532 1532 1532 1532 1531 1531 1531 1531 1530 1530 1530 1530 1531 1531 1531 1531 1530 1530 1531 1531 1531 1530 1530 1530 1530 1530 1529 1529 1529 1528 1528 1528
1525 1525 1526 1526 1526 1527 1528 1528 1529 1529 1529 1529 1529 1529 1529 1528 1527 1528 1528 1528 1527 1526 1526 1526 1527 1527 1527 1527 1527 1527 1527 1527 1527 1526 1526 1526 1525 1525 1525 1525 1524 1524 1524
1523 1523 1524 1524 1524 1525 1525 1526 1526 1526 1526 1526 1526 1526 1525 1525 1524 1524 1525 1525 1525 1523 1522 1522 1523 1523 1523 1523 1523 1523 1523 1523 1522 1522 1522 1522 1521 1521 1520 1520 1520 1519 1519
1522 1521 1521 1522 1522 1522 1523 1523 1523 1523 1523 1523 1523 1523 1522 1522 1522 1521 1521 1521 1521 1521 1519 1518 1519 1519 1519 1520 1519 1519 1519 1519 1518 1518 1517 1517 1516 1516 1516 1515 1515 1515 1514
1519 1519 1519 1519 1519 1520 1520 1520 1519 1520 1520 1520 1520 1519 1519 1519 1519 1518 1518 1517 1517 1517 1516 1515 1515 1515 1515 1515 1515 1515 1515 1515 1514 1513 1513 1512 1511 1511 1511 1511 1511 1510 1510
1517 1517 1516 1516 1516 1516 1517 1516 1516 1516 1516 1516 1516 1515 1515 1515 1515 1515 1514 1514 1513 1513 1513 1511 1511 1511 1511 1511 1510 1510 1510 1510 1509 1509 1508 1508 1507 1507 1507 1506 1506 1506 1505
1514 1514 1513 1513 1513 1513 1513 1513 1513 1513 1512 1512 1512 1511 1511 1511 1510 1510 1510 1510 1509 1509 1509 1508 1507 1507 1507 1507 1506 1506 1506 1505 1505 1504 1503 1503 1503 1502 1502 1502 1502 1501 1501
1511 1511 1510 1510 1510 1510 1510 1509 1509 1509 1508 1508 1508 1507 1507 1507 1506 1506 1505 1505 1505 1505 1505 1504 1503 1503 1503 1502 1502 1501 1501 1500 1500 1499 1498 1498 1498 1498 1498 1497 1497 1496 1496
1508 1508 1507 1507 1507 1506 1505 1505 1505 1505 1504 1504 1504 1503 1502 1502 1502 1502 1501 1501 1500 1500 1500 1499 1499 1498 1498 1498 1497 1497 1496 1495 1495 1495 1494 1494 1494 1493 1493 1493 1492 1492 1491
1506 1505 1504 1503 1503 1502 1502 1501 1501 1501 1500 1499 1499 1499 1498 1498 1498 1498 1497 1497 1496 1496 1495 1495 1494 1494 1493 1494 1493 1493 1492 1491 1490 1491 1490 1489 1489 1488 1488 1488 1488 1487 1486
1503 1502 1502 1500 1499 1499 1498 1497 1497 1497 1496 1495 1495 1494 1494 1494 1493 1493 1492 1492 1492 1492 1492 1491 1490 1490 1489 1489 1489 1488 1488 1487 1486 1486 1486 1484 1484 1484 1484 1483 1483 1483 1482
1500 1500 1499 1498 1497 1496 1495 1494 1493 1493 1492 1491 1491 1490 1489 1489 1489 1489 1488 1487 1487 1487 1487 1487 1486 1485 1485 1485 1485 1485 1484 1483 1483 1482 1482 1480 1480 1480 1480 1479 1479 1479 1478
1497 1497 1496 1495 1493 1493 1492 1491 1490 1489 1488 1487 1487 1486 1486 1485 1485 1484 1484 1483 1483 1482 1482 1482 1482 1481 1481 1481 1481 1481 1480 1479 1478 1478 1478 1477 1476 1475 1475 1475 1475 1475 1474
1495 1494 1493 1492 1491 1490 1489 1488 1487 1486 1484 1483 1483 1482 1482 1481 1481 1480 1479 1478 1478 1477 1478 1477 1477 1477 1477 1477 1476 1476 1476 1475 1474 1474 1474 1473 1473 1472 1472 1471 1471 1471 1471